Home   Weather   Newcastle upon Tyne   Past weeks
Flag for United Kingdom

Past Weather in Newcastle upon Tyne, England, United Kingdom — Yesterday and Last 2 Weeks

Now
39 °F

Passing clouds.


Feels Like: 30 °F
Forecast: 40 / 31 °F
Wind: 17 mph from South

Location: Newcastle

Current Time: Jan 22, 2019 at 12:40:27 am

Latest Report: Jan 21, 2019 at 11:50 pm


Visibility: N/A

Pressure: 29.47 "Hg

Humidity: 87%

Dew Point: 36 °F

Location of Newcastle upon TyneLocation

Past Weather in Newcastle upon Tyne — Graph

°F

Newcastle upon Tyne Temperature Yesterday

Maximum temperature yesterday: 39 °F (at 2:20 pm)
Minimum temperature yesterday: 25 °F (at 6:20 am)
Average temperature yesterday: 34 °F

High & Low Weather Summary for the Past Weeks

 TemperatureHumidityPressure
High54 °F (Jan 7, 9:20 am)100% (Jan 14, 6:20 am)30.48 "Hg (Jan 14, 6:20 am)
Low23 °F (Jan 18, 5:50 am)58% (Jan 13, 1:20 pm)29.39 "Hg (Jan 16, 6:50 am)
Average41 °F83%30.01 "Hg
* Reported Jan 6 11:20 pm — Jan 21 11:20 pm, Newcastle upon Tyne. Weather by CustomWeather, © 2019

Note: Actual official high and low records may vary slightly from our data, if they occured in-between our weather recording intervals... More about our weather records

Advertising

Newcastle upon Tyne Weather History for the Previous 24 Hours

Scroll right to see more
 ConditionsComfort  
Time TempWeatherWind HumidityBarometerVisibility
11:20 pm
Mon, Jan 21
39 °FPassing clouds.12 mph87%29.50 "HgN/A
10:50 pm39 °FPassing clouds.8 mph87%29.53 "HgN/A
10:20 pm39 °FPassing clouds.10 mph81%29.53 "HgN/A
9:50 pm39 °FPassing clouds.12 mph81%29.56 "HgN/A
9:20 pm39 °FPassing clouds.10 mph81%29.59 "HgN/A
8:50 pm39 °FPassing clouds.10 mph81%29.62 "HgN/A
8:20 pm39 °FPassing clouds.9 mph81%29.65 "HgN/A
7:50 pm39 °FPassing clouds.7 mph81%29.68 "HgN/A
7:20 pm39 °FPassing clouds.9 mph75%29.71 "HgN/A
6:50 pm39 °FPassing clouds.12 mph75%29.74 "HgN/A
6:20 pm39 °FPassing clouds.12 mph75%29.74 "HgN/A
5:50 pm37 °FPassing clouds.6 mph81%29.77 "HgN/A
5:20 pm37 °FPassing clouds.7 mph81%29.80 "HgN/A
4:50 pm37 °FPassing clouds.7 mph87%29.80 "HgN/A
4:20 pm37 °FPassing clouds.9 mph87%29.83 "HgN/A
3:50 pm39 °FPassing clouds.6 mph81%29.86 "HgN/A
3:20 pm37 °FPassing clouds.6 mph87%29.89 "HgN/A
2:50 pm39 °FPassing clouds.9 mph75%29.92 "HgN/A
2:20 pm39 °FPassing clouds.9 mph81%29.95 "HgN/A
1:50 pm37 °FPassing clouds.5 mph81%29.95 "HgN/A
1:20 pm37 °FPassing clouds.6 mph81%29.98 "HgN/A
12:50 pm37 °FPassing clouds.7 mph81%30.01 "HgN/A
12:20 pm36 °FPassing clouds.2 mph87%30.04 "HgN/A
11:50 am34 °FSunny.3 mph87%30.04 "Hg10 mi
10:50 am32 °FSunny.3 mph93%30.09 "Hg10 mi
10:20 am30 °FSunny.3 mph93%30.09 "Hg10 mi
9:50 am28 °FSunny.5 mph100%30.12 "Hg10 mi
9:20 am28 °FSunny.3 mph100%30.12 "Hg10 mi
8:50 am28 °FSunny.5 mph93%30.15 "Hg10 mi
8:20 am27 °FSunny.1 mph93%30.15 "Hg10 mi
7:50 am27 °FClear.5 mph100%30.15 "Hg10 mi
7:20 am27 °FClear.2 mph93%30.15 "Hg10 mi
6:50 am27 °FClear.3 mph93%30.18 "Hg10 mi
6:20 am25 °FClear.3 mph100%30.18 "Hg10 mi
5:50 am27 °FClear.3 mph100%30.18 "Hg10 mi
5:20 am27 °FClear.2 mph100%30.18 "Hg10 mi
4:50 am27 °FClear.2 mph100%30.18 "Hg10 mi
4:20 am28 °FClear.1 mph93%30.21 "Hg10 mi
3:50 am30 °FClear.3 mph93%30.21 "Hg10 mi
3:20 am30 °FClear.6 mph93%30.21 "Hg10 mi
2:50 am32 °FClear.7 mph93%30.21 "Hg10 mi
2:20 am30 °FClear.5 mph100%30.21 "Hg10 mi
1:50 am32 °FClear.6 mph93%30.21 "Hg10 mi
1:20 am30 °FClear.6 mph100%30.21 "Hg10 mi
12:50 am30 °FPassing clouds.5 mph93%30.24 "HgN/A
12:20 am32 °FClear.2 mph93%30.24 "Hg10 mi
Weather by CustomWeather, © 2019

See weather overview